Zurück zum Katalog

GGSE 3 DEB

AktivLEO
NORAD 44043·DEBRIS·🇺🇸 United States

Gestartet Mar 9, 1965 von Vandenberg Space Force Base

Loading…

Nächste Überflüge (nächste 24 Stunden)

TLE

AktuellSource: Space-Track

Epoche: Sep 14, 2026, 13:45 UTC

1 44043U 65016L   26257.57341543  .00000512  00000-0  35475-3 0  9992
2 44043  70.0740 109.6594 0018153 194.5870 165.4719 14.04340036388301

Verfolge GGSE 3 DEB in Echtzeit mit AllMySat

Download on the App Store